User: anonymous   Login
Location: Muenchen
(48.1800°N, 11.5800°E)
Time: 18:46:19
(UTC+01:00)
Language:

Sich 1 Rocket - Orbit

View from above orbital plane
View from above orbital plane
View from above satellite
View from above satellite

Ground track
Ground track

The orbit data is extracted from the following two-line orbital elements,

1 23659U 95046C   18050.63330644 +.00000085 +00000-0 +83628-5 0  9997
2 23659 082.5278 075.8548 0026617 141.9444 357.6750 14.78272650210788
Epoch (UTC): 19 February 2018 15:11:57
Eccentricity: 0.0026617
inclination: 82.5278°
perigee height: 616 km
apogee height: 653 km
right ascension of ascending node: 75.8548°
argument of perigee: 141.9444°
revolutions per day: 14.78272650
mean anomaly at epoch: 357.6750°
orbit number at epoch: 21078

The dashed part of the orbit path shows where the satellite is in the earth's shadow,  

DLR